Weather Roundup
Issued by NWS Springfield, MO

Home | Current Version | Previous Version | Text Only | Print | Product List | Glossary On
Versions: 1 2 3 4 5 6 7 8 9 10 11 12 13 14 15 16 17 18 19 20 21 22 23 24 25 26 27 28 29 30 31 32 33 34 35 36 37 38 39 40 41 42 43 44 45 46 47 48 49 50
000
NZUS99 KSGF 210707
HRRSGF

HOURLY WEATHER
NATIONAL WEATHER SERVICE SPRINGFIELD MO
200 AM CDT TUE APR 21 2015

......SGF CWA......

CITY           SKY/WX    TMP DP  RH WIND       PRES   REMARKS
SPRINGFIELD    CLEAR     44  33  65 SW9       29.92S
JOPLIN         PTCLDY    43  36  76 S7        29.94S
WEST PLAINS    CLEAR     43  29  57 SW6       29.94S
ROLLA          CLEAR     41  27  57 SW12      29.85F
OSAGE BEACH    CLEAR     46  27  46 SW7       29.88S
BRANSON        CLEAR     46  32  57 SW3       29.96F

......SURROUNDING SGF CWA......

CITY           SKY/WX    TMP DP  RH WIND       PRES   REMARKS
CHANUTE        CLOUDY    47  39  74 SW8       29.92S
PARSONS        CLOUDY    46  43  89 CALM      29.94S
COFFEYVILLE    PTCLDY    50  37  61 SW8       29.93F
EMPORIA        CLOUDY    49  37  63 SW10      29.89S
GROVE OK       CLEAR     43  43 100 CALM      29.96S
ROGERS AR      CLEAR     45  34  65 S7        29.97F
SILOAM SPRINGS CLEAR     45  30  57 S6        29.98S
HARRISON AR    CLEAR     47  31  53 CALM      29.96F
NEAR YELLVILLE CLEAR     46 N/A N/A W3        29.95S

......KANSAS AND MISSOURI......

CITY           SKY/WX    TMP DP  RH WIND       PRES   REMARKS
KANSAS CTY INT CLEAR     43  30  60 W9        29.85S
DOWNTOWN KC    CLEAR     50  30  46 SW9       29.85S
COLUMBIA       MOCLDY    47  30  51 SW12      29.84S
SEDALIA        PTCLDY    47  32  56 SW9       29.86F
ST JOSEPH      MOCLDY    45  29  53 W12       29.84S
ST LOUIS       CLEAR     47  29  49 SW9       29.82F
SPIRIT OF STL  CLEAR     46  29  51 SW8       29.83S
KIRKSVILLE     CLEAR     44  27  51 SW8       29.78S
WICHITA        MOCLDY    47  38  71 SW9       29.92S
TOPEKA         CLOUDY    46  33  60 W3        29.88F
OLATHE         MOCLDY    47  31  53 W7        29.86F

......TENNESSEE......

CITY           SKY/WX    TMP DP  RH WIND       PRES   REMARKS
MEMPHIS        CLEAR     52  37  56 W3        29.98S
NASHVILLE      CLEAR     49  42  77 CALM      29.92S

......ARKANSAS.......

CITY           SKY/WX    TMP DP  RH WIND       PRES   REMARKS
FAYETTEVILLE   CLEAR     40  37  89 S7        29.97F
FT SMITH       CLEAR     46  40  79 NE3       29.99S
LITTLE ROCK    CLEAR     49  40  71 SW3       30.01S

......OKLAHOMA.......

CITY           SKY/WX    TMP DP  RH WIND       PRES   REMARKS
TULSA          CLOUDY    53  39  59 S5        29.95S
PONCA CITY     PTCLDY    49  38  65 CALM      29.94F
MCALESTER      PTCLDY    43  40  89 CALM      30.00F
OKLAHOMA CITY  CLOUDY    50  43  77 S3        29.99S

......IOWA............

CITY           SKY/WX    TMP DP  RH WIND       PRES   REMARKS
DES MOINES     CLEAR     39  22  50 W6        29.73S WCI  35
QUAD CITIES    CLEAR     40  30  67 W12       29.68S WCI  33

......ILLINOIS........

CITY           SKY/WX    TMP DP  RH WIND       PRES   REMARKS
QUINCY         CLEAR     43  27  53 W9        29.76S
CHICAGO        PTCLDY    42  32  67 W10G21    29.60F



USA.gov is the U.S. government's official web portal to all federal, state and local government web resources and services.